Indian Springs, NV

3:54 PM PST on February 22, 2017 (GMT -0800)
Indian Springs Air Force Auxiliary

Weather History for KINS - October, 2013

Change the Weather History Date:

Monday, October 28, 2013

  Actual Average (KDRA) Record (KDRA)
Temperature  
Mean Temperature 60 °F -  
Max Temperature 68 °F 67 °F 90 °F (2003)
Min Temperature 49 °F 42 °F 29 °F (2009)
Degree Days  
Heating Degree Days 6    
Growing Degree Days 10 (Base 50)    
Moisture  
Dew Point 21 °F    
Average Humidity 23    
Maximum Humidity 51    
Minimum Humidity 14    
Precipitation  
Precipitation 1.70 in - - ()
Sea Level Pressure  
Sea Level Pressure 29.54 in    
Wind  
Wind Speed 17 mph (SW)    
Max Wind Speed 32 mph    
Max Gust Speed 53 mph    
Visibility 10 miles    
Events      
Averages and records for this station are not official NWS values.
T = Trace of Precipitation, MM = Missing Value Source: NWS Daily Summary

Daily Weather History Graph

Daily Weather History Graph

Search for Another Location

Airport or City:

Trip Planner

Search our weather history database for the weather conditions in past years. The results will help you decide how hot, cold, wet, or windy it might be!

Date:

Astronomy

Oct. 28, 2013 Rise Set
Actual Time 7:02 AM PDT 5:49 PM PDT
Civil Twilight 6:35 AM PDT 6:16 PM PDT
Nautical Twilight 6:05 AM PDT 6:46 PM PDT
Astronomical Twilight 5:35 AM PDT 7:16 PM PDT
Moon 1:08 AM PDT (10/28) 2:25 PM PDT (10/28)
Length of Visible Light 11h 40m
Length of Day
10h 47m
Waning Crescent, 33% of the Moon is Illuminated
Oct 28
Waning Crescent
Nov 3
New
Nov 9
First Quarter
Nov 17
Full
Nov 25
Last Quarter

Hourly Weather History & Observations

Time (PDT) Temp. Dew Point Humidity Pressure Visibility Wind Dir Wind Speed Gust Speed Precip Events Conditions
12:30 AM 66.2 °F 23.0 °F 19% 29.49 in 10.0 mi WSW 16.1 mph 25.3 mph N/A   Clear
12:46 AM 66.2 °F 24.8 °F 21% 29.48 in 10.0 mi SW 12.7 mph 32.2 mph N/A   Clear
12:58 AM 66.2 °F 22.3 °F 19% 29.48 in 10.0 mi WSW 8.1 mph 24.2 mph N/A   Clear
1:30 AM 68.0 °F 21.2 °F 17% 29.47 in 10.0 mi WSW 11.5 mph 18.4 mph N/A   Clear
1:35 AM 66.2 °F 21.2 °F 18% 29.46 in 10.0 mi SW 16.1 mph 23.0 mph N/A   Clear
1:38 AM 66.2 °F 21.2 °F 18% 29.45 in 10.0 mi SW 19.6 mph 29.9 mph N/A   Clear
1:46 AM 68.0 °F 19.4 °F 16% 29.44 in 10.0 mi South 21.9 mph 34.5 mph N/A   Clear
1:58 AM 68.0 °F 19.4 °F 16% 29.43 in 10.0 mi SSE 18.4 mph 36.8 mph 0.02 in   Clear
2:00 AM 68.0 °F 21.2 °F 17% 29.45 in 10.0 mi SSE 25.3 mph 36.8 mph N/A   Clear
2:07 AM 66.2 °F 24.8 °F 21% 29.46 in 10.0 mi SSE 18.4 mph 36.8 mph N/A   Clear
2:10 AM 66.2 °F 23.0 °F 19% 29.44 in 10.0 mi ESE 20.7 mph 36.8 mph N/A   Clear
2:11 AM 66.2 °F 21.2 °F 18% 29.44 in 10.0 mi SSE 19.6 mph 36.8 mph N/A   Clear
2:12 AM 66.2 °F 21.2 °F 18% 29.45 in 10.0 mi SW 17.3 mph 36.8 mph N/A   Clear
2:21 AM 68.0 °F 17.6 °F 15% 29.45 in 10.0 mi SW 18.4 mph 41.4 mph N/A   Clear
2:56 AM 66.2 °F 21.2 °F 18% 29.44 in 10.0 mi ENE 15.0 mph 21.9 mph N/A   Clear
2:58 AM 66.7 °F 21.0 °F 18% 29.45 in 10.0 mi East 10.4 mph 21.9 mph N/A   Clear
3:06 AM 66.2 °F 21.2 °F 18% 29.44 in 10.0 mi SW 16.1 mph 29.9 mph N/A   Clear
3:08 AM 66.2 °F 21.2 °F 18% 29.44 in 10.0 mi South 13.8 mph 29.9 mph N/A   Clear
3:14 AM 66.2 °F 23.0 °F 19% 29.45 in 10.0 mi SSW 12.7 mph 29.9 mph N/A   Clear
3:18 AM 66.2 °F 24.8 °F 21% 29.45 in 10.0 mi WSW 15.0 mph 28.8 mph N/A   Clear
3:54 AM 62.6 °F 28.4 °F 27% 29.42 in 10.0 mi NNW 13.8 mph - N/A   Clear
3:58 AM 62.1 °F 28.0 °F 28% 29.41 in 10.0 mi NW 13.8 mph 18.4 mph N/A   Clear
4:43 AM 64.4 °F 17.6 °F 16% 29.42 in 10.0 mi SE 13.8 mph 26.5 mph N/A   Clear
4:49 AM 64.4 °F 19.4 °F 18% 29.40 in 10.0 mi East 25.3 mph 44.9 mph N/A   Clear
4:53 AM 62.6 °F 21.2 °F 20% 29.41 in 10.0 mi SE 12.7 mph 44.9 mph N/A   Clear
4:58 AM 63.3 °F 21.4 °F 20% 29.40 in 10.0 mi South 11.5 mph 44.9 mph N/A   Clear
5:58 AM 60.8 °F 17.1 °F 18% 29.39 in 10.0 mi SSW 31.1 mph 52.9 mph 1.54 in   Clear
6:55 AM 58.6 °F 18.9 °F 21% 29.43 in 10.0 mi SSW 31.1 mph 52.9 mph N/A   Clear
7:58 AM 56.5 °F 16.9 °F 21% 29.54 in 10.0 mi SW 25.3 mph 34.5 mph N/A   Unknown
8:58 AM 55.6 °F 20.1 °F 25% 29.56 in 10.0 mi WSW 32.2 mph 41.4 mph N/A   Clear
9:09 AM 55.4 °F 19.4 °F 25% 29.58 in 10.0 mi West 25.3 mph 35.7 mph N/A   Clear
9:43 AM 57.2 °F 19.4 °F 23% 29.59 in 10.0 mi SW 19.6 mph 35.7 mph N/A   Clear
9:58 AM 56.8 °F 19.2 °F 23% 29.59 in 10.0 mi WSW 15.0 mph 26.5 mph N/A   Clear
10:15 AM 59.0 °F 15.8 °F 19% 29.60 in 10.0 mi SSW 15.0 mph 21.9 mph N/A   Clear
10:58 AM 58.5 °F 18.3 °F 21% 29.61 in 10.0 mi WNW 19.6 mph 31.1 mph N/A   Clear
11:06 AM 59.0 °F 19.4 °F 22% 29.60 in 10.0 mi NW 20.7 mph 34.5 mph N/A   Clear
11:08 AM 59.0 °F 17.6 °F 20% 29.61 in 10.0 mi West 20.7 mph 38.0 mph N/A   Clear
11:49 AM 60.8 °F 14.0 °F 16% 29.60 in 10.0 mi South 13.8 mph 25.3 mph N/A   Clear
11:58 AM 60.4 °F 14.0 °F 16% 29.60 in 10.0 mi SSW 17.3 mph 25.3 mph N/A   Clear
11:59 AM 60.8 °F 12.2 °F 15% 29.60 in 10.0 mi South 18.4 mph 25.3 mph N/A   Clear
12:58 PM 61.9 °F 12.4 °F 14% 29.61 in 10.0 mi Variable 5.8 mph 21.9 mph N/A   Clear
1:58 PM 61.9 °F 16.7 °F 17% 29.60 in 10.0 mi SW 16.1 mph 23.0 mph N/A   Clear
2:13 PM 60.8 °F 17.6 °F 19% 29.60 in 10.0 mi SSW 19.6 mph 28.8 mph N/A   Clear
2:19 PM 60.8 °F 17.6 °F 19% 29.61 in 10.0 mi WSW 12.7 mph 28.8 mph N/A   Clear
2:24 PM 60.8 °F 19.4 °F 20% 29.61 in 10.0 mi SW 19.6 mph 26.5 mph N/A   Clear
2:41 PM 60.8 °F 19.4 °F 20% 29.61 in 10.0 mi SSW 15.0 mph 31.1 mph N/A   Clear
2:46 PM 60.8 °F 21.2 °F 22% 29.61 in 10.0 mi WSW 11.5 mph 24.2 mph N/A   Clear
2:49 PM 60.8 °F 21.2 °F 22% 29.61 in 10.0 mi SSW 13.8 mph 24.2 mph N/A   Clear
2:58 PM 60.4 °F 21.7 °F 23% 29.60 in 10.0 mi WSW 17.3 mph 29.9 mph N/A   Clear
3:58 PM 57.0 °F 26.6 °F 31% 29.61 in 10.0 mi SW 25.3 mph 33.4 mph 0.03 in   Clear
5:52 PM 53.6 °F 26.6 °F 35% 29.62 in 10.0 mi SW 29.9 mph 44.9 mph N/A   Clear
5:58 PM 54.5 °F 25.7 °F 33% 29.62 in 10.0 mi SW 26.5 mph 40.3 mph 0.11 in   Clear
6:58 PM 54.0 °F 28.2 °F 37% 29.67 in 10.0 mi SW 25.3 mph 33.4 mph N/A   Clear
7:58 PM 53.1 °F 28.6 °F 39% 29.69 in 10.0 mi West 11.5 mph - N/A   Clear
8:24 PM 53.6 °F 28.4 °F 38% 29.70 in 10.0 mi SW 16.1 mph 24.2 mph N/A   Scattered Clouds
8:58 PM 52.5 °F 29.5 °F 41% 29.72 in 10.0 mi SW 19.6 mph 33.4 mph N/A   Partly Cloudy
9:58 PM 51.3 °F 32.4 °F 48% 29.75 in 10.0 mi SSW 11.5 mph - N/A   Mostly Cloudy
10:58 PM 52.0 °F 29.3 °F 42% 29.75 in 10.0 mi WSW 12.7 mph - N/A   Partly Cloudy
11:58 PM 49.8 °F 32.2 °F 51% 29.78 in 10.0 mi South 8.1 mph - N/A   Scattered Clouds